Location: Aurora Center
(43.5271°N, 98.5894°W)
Time: 01:02:15
(UTC-05:00)

BlueWalker 3 - Pass Details

Date: 19 June 2024
Orbit: 480 x 492 km, 53.2° (Epoch: 15 July)

Event Time Altitude Azimuth Distance (km) Brightness Sun altitude
Rises 03:58:17 0° 307° (NW) 2,539 5.6 -15.5°
Reaches altitude 10° 04:00:33 10° 316° (NW) 1,658 4.7 -15.3°
Maximum altitude 04:04:05 39° 26° (NNE) 733 3.4 -14.9°
Drops below altitude 10° 04:07:37 10° 97° (E) 1,655 4.9 -14.5°
Sets 04:09:52 0° 105° (ESE) 2,533 5.8 -14.3°
